Location: Dessau
(51.7984°N, 12.2168°E)
Time: 03:31:06
(UTC+01:00)

Amateur Radio Satellites - All Passes

Search period start: 22 January 2018 03:01
Search period end: 23 January 2018 03:01
Location: Dessau, 51.7984°N, 12.2168°E

Satellite Date Start Highest point End Downlink Frequencies (MHz)
Time Altitude Azimuth
ITUPSAT 1 22 Jan 03:10:19 03:15:00 54° 259° (W) 03:19:45 437.325
UKube-1 22 Jan 03:11:08 03:12:22 11° 274° (W) 03:13:37 .
KKS-1 22 Jan 03:19:20 03:22:38 21° 59° (ENE) 03:25:56 437.445
STARS 22 Jan 03:33:55 03:36:04 14° 54° (NE) 03:38:15 437.465
MOZHAYETS 4 22 Jan 03:33:57 03:37:35 22° 269° (W) 03:41:15
CUBESAT XI-V 22 Jan 03:38:01 03:42:41 63° 259° (W) 03:47:20 437.345
O/OREOS (USA 219) 22 Jan 03:38:24 03:38:34 10° 332° (NNW) 03:38:43 437.305
DOVE 4 22 Jan 03:46:59 03:49:10 13° 88° (E) 03:51:23 437.250
BEESAT 22 Jan 03:50:26 03:54:23 25° 267° (W) 03:58:22 436.000
ITAMSAT 1 22 Jan 04:05:08 04:10:18 60° 102° (ESE) 04:15:27 435.822/435.867
AO-7 22 Jan 04:27:56 04:36:22 87° 293° (WNW) 04:44:44 .
Gurwin Techsat 1B 22 Jan 04:31:48 04:34:17 13° 312° (NW) 04:36:46 435.225
SO-50 22 Jan 04:41:08 04:44:10 18° 113° (ESE) 04:47:15 436.795
M-CUBED/EXP-1 PRIME 22 Jan 04:50:48 04:53:33 22° 100° (E) 04:56:12 437.505
KKS-1 22 Jan 04:54:26 04:58:49 61° 258° (WSW) 05:03:13 437.445
STARS 22 Jan 05:07:21 05:11:43 81° 74° (ENE) 05:16:07 437.465
STRAND 1 22 Jan 05:22:41 05:26:49 26° 58° (ENE) 05:30:58 437.568
DOVE 4 22 Jan 05:23:05 05:27:24 83° 285° (WNW) 05:31:56 437.250
LilacSat-2 22 Jan 05:23:09 05:25:50 18° 91° (E) 05:28:29 437.200
XW-2C 22 Jan 05:24:08 05:26:41 17° 90° (E) 05:29:13 145.795 - 145.815
HO-68 22 Jan 05:24:55 05:27:58 13° 81° (E) 05:30:59 435.675
ITAMSAT 1 22 Jan 05:45:09 05:49:26 26° 302° (WNW) 05:53:43 435.822/435.867
FO-29 22 Jan 05:45:18 05:50:14 24° 57° (ENE) 05:54:47 435.910
CUTE-I 22 Jan 05:45:44 05:50:13 27° 93° (E) 05:54:40 437.470
KAITUO 1B 22 Jan 05:55:25 05:58:33 25° 94° (E) 06:01:40 145.475/437.950
XW-2F 22 Jan 05:58:48 06:02:17 35° 97° (E) 06:05:43 145.980 - 146.000
NUDT-PHONESAT 22 Jan 06:04:21 06:07:37 29° 95° (E) 06:10:52 437.300
SEEDS 22 Jan 06:07:07 06:07:41 10° 84° (E) 06:08:16 437.485
XW-2D 22 Jan 06:09:19 06:13:01 51° 100° (E) 06:16:40 145.860 - 145.880
CUTE 1.7 + AOD 2 22 Jan 06:19:33 06:22:52 22° 92° (E) 06:26:08 437.475
SO-50 22 Jan 06:19:34 06:24:04 82° 314° (NW) 06:28:41 436.795
AO-7 22 Jan 06:21:19 06:28:14 30° 315° (NW) 06:35:07 .
M-CUBED/EXP-1 PRIME 22 Jan 06:24:59 06:28:03 31° 300° (WNW) 06:31:00 437.505
XW-2B 22 Jan 06:26:56 06:30:43 76° 103° (ESE) 06:34:28 145.730 - 145.750
CUBEBUG 2 22 Jan 06:42:18 06:46:23 28° 93° (E) 06:50:26 437.445
UWE-3 22 Jan 06:45:54 06:49:09 18° 88° (E) 06:52:23 435.000/436.395/437.385
STARS 22 Jan 06:46:19 06:48:38 14° 272° (W) 06:50:58 437.465
RS-15 22 Jan 06:53:13 07:03:04 30° 103° (ESE) 07:12:46 29.354- 29.394
LilacSat-2 22 Jan 06:56:42 07:00:21 47° 290° (WNW) 07:03:59 437.200
XW-2C 22 Jan 06:57:28 07:01:08 49° 289° (WNW) 07:04:46 145.795 - 145.815
STRAND 1 22 Jan 07:00:37 07:05:39 61° 258° (WSW) 07:10:44 437.568
DOVE 4 22 Jan 07:02:25 07:04:30 13° 304° (NW) 07:06:38 437.250
UNISAT 6 22 Jan 07:04:40 07:06:16 12° 51° (NE) 07:07:52 437.425
ZACube-1 22 Jan 07:07:23 07:10:13 16° 87° (E) 07:13:01 437.345
HO-68 22 Jan 07:10:11 07:17:16 60° 102° (ESE) 07:24:19 435.675
AO-73 22 Jan 07:13:27 07:16:17 16° 87° (E) 07:19:05 145.935
AAUSAT CUBESAT 2 22 Jan 07:18:29 07:21:50 24° 93° (E) 07:25:10 437.432
CUTE-I 22 Jan 07:25:24 07:30:36 56° 292° (WNW) 07:35:48 437.470
FO-29 22 Jan 07:28:15 07:34:54 79° 255° (WSW) 07:40:47 435.910
KAITUO 1B 22 Jan 07:29:15 07:32:34 31° 293° (WNW) 07:35:51 145.475/437.950
XW-2F 22 Jan 07:33:11 07:36:14 24° 296° (WNW) 07:39:17 145.980 - 146.000
NUDT-PHONESAT 22 Jan 07:38:15 07:41:25 27° 294° (WNW) 07:44:32 437.300
SEEDS 22 Jan 07:39:53 07:44:05 81° 102° (ESE) 07:48:15 437.485
XW-2A 22 Jan 07:40:54 07:43:54 29° 96° (E) 07:46:51 145.665 - 145.685
XW-2D 22 Jan 07:44:13 07:46:52 18° 299° (WNW) 07:49:28 145.860 - 145.880
Oscar 11 22 Jan 07:45:10 07:48:20 19° 90° (E) 07:51:28 .
CUTE 1.7 + AOD 2 22 Jan 07:54:52 07:58:56 47° 291° (WNW) 08:02:58 437.475
SO-50 22 Jan 08:01:25 08:05:11 25° 336° (NNW) 08:09:01 436.795
XW-2B 22 Jan 08:02:28 08:04:22 14° 302° (WNW) 08:06:15 145.730 - 145.750
AO-7 22 Jan 08:15:01 08:18:22 13° 341° (NNW) 08:21:44 .
YUBILEINY 22 Jan 08:17:44 08:25:03 28° 56° (ENE) 08:32:18 435.215
CUBEBUG 2 22 Jan 08:18:36 08:23:09 46° 292° (WNW) 08:27:43 437.445
UWE-3 22 Jan 08:21:24 08:26:05 69° 288° (WNW) 08:30:42 435.000/436.395/437.385
TIGRISAT 22 Jan 08:22:15 08:26:29 43° 67° (ENE) 08:30:50 435.000
PCSat 22 Jan 08:23:36 08:25:04 11° 101° (ESE) 08:26:32 145.827
PRISM 22 Jan 08:29:43 08:32:10 16° 57° (ENE) 08:34:38 437.425
UNISAT 6 22 Jan 08:37:38 08:42:04 64° 71° (ENE) 08:46:37 437.425
O/OREOS (USA 219) 22 Jan 08:39:19 08:43:18 30° 49° (NE) 08:47:16 437.305
ZACube-1 22 Jan 08:42:27 08:47:03 76° 286° (WNW) 08:51:33 437.345
AO-73 22 Jan 08:48:29 08:53:04 75° 286° (WNW) 08:57:32 145.935
AAUSAT CUBESAT 2 22 Jan 08:53:34 08:57:27 41° 292° (WNW) 09:01:18 437.432
HO-68 22 Jan 08:58:17 09:04:45 38° 304° (WNW) 09:11:13 435.675
RS-15 22 Jan 09:01:36 09:13:58 83° 128° (SE) 09:26:02 29.354- 29.394
CUTE-I 22 Jan 09:07:21 09:09:36 13° 313° (NW) 09:11:51 437.470
XW-2A 22 Jan 09:13:44 09:16:29 23° 295° (WNW) 09:19:13 145.665 - 145.685
SEEDS 22 Jan 09:16:50 09:19:12 15° 303° (WNW) 09:21:34 437.485
FO-29 22 Jan 09:16:57 09:20:46 16° 273° (W) 09:24:24 435.910
DELFI C3 22 Jan 09:18:42 09:22:15 32° 96° (E) 09:25:48 145.870
QB50P2 22 Jan 09:19:07 09:20:05 11° 52° (NE) 09:21:05 145.880/145.840
Oscar 11 22 Jan 09:20:34 09:24:49 56° 289° (WNW) 09:29:03 .
Max Valier Satellite 22 Jan 09:42:37 09:46:08 38° 98° (E) 09:49:35 145.860
SO-50 22 Jan 09:44:07 09:47:08 17° 0° (N) 09:50:10 436.795
DUCHIFAT 1 22 Jan 09:45:35 09:47:34 13° 54° (NE) 09:49:32 145.980
EO-79 22 Jan 09:47:31 09:50:15 17° 57° (ENE) 09:52:58 145.935-145.965
EO-88 22 Jan 09:58:26 10:01:51 37° 98° (E) 10:05:15 145.990 - 145.960
BEESAT 3 22 Jan 09:59:16 10:03:13 62° 127° (SE) 10:07:10 437.485
AIST 2D 22 Jan 09:59:27 10:02:50 45° 71° (ENE) 10:06:12 435.315
TIGRISAT 22 Jan 09:59:31 10:03:20 27° 267° (W) 10:07:15 435.000
UWE-3 22 Jan 09:59:36 10:01:41 13° 307° (NW) 10:03:46 435.000/436.395/437.385
PCSat 22 Jan 10:02:03 10:07:22 60° 121° (ESE) 10:12:43 145.827
PRISM 22 Jan 10:02:54 10:06:57 74° 258° (WSW) 10:11:01 437.425
AO-7 22 Jan 10:05:40 10:07:34 11° 9° (N) 10:09:29 .
YUBILEINY 22 Jan 10:14:18 10:23:06 87° 261° (W) 10:31:48 435.215
UNISAT 6 22 Jan 10:16:03 10:19:14 19° 271° (W) 10:22:28 437.425
O/OREOS (USA 219) 22 Jan 10:18:36 10:22:52 44° 249° (WSW) 10:27:07 437.305
ZACube-1 22 Jan 10:20:18 10:22:33 14° 306° (NW) 10:24:46 437.345
POLYITAN 1 22 Jan 10:21:33 10:25:19 31° 64° (ENE) 10:29:06 437.675
AO-73 22 Jan 10:26:20 10:28:30 13° 306° (NW) 10:30:39 145.935
NANOSAT C BR1 22 Jan 10:35:45 10:39:39 37° 66° (ENE) 10:43:36 145.865
BUGSAT 1 22 Jan 10:42:12 10:43:54 12° 54° (NE) 10:45:37 437.445
HO-68 22 Jan 10:47:52 10:50:37 13° 327° (NNW) 10:53:21 435.675
BEESAT 2 22 Jan 10:50:21 10:54:18 57° 126° (SE) 10:58:18 435.950
QB50P2 22 Jan 10:50:50 10:55:02 63° 71° (ENE) 10:59:17 145.880/145.840
DELFI C3 22 Jan 10:53:32 10:56:56 28° 295° (WNW) 11:00:20 145.870
Gurwin Techsat 1B 22 Jan 11:00:19 11:03:08 15° 49° (NE) 11:05:56 435.225
Oscar 19 22 Jan 11:03:14 11:06:40 18° 53° (NE) 11:10:07 437.125/150
LO-87 22 Jan 11:13:31 11:16:57 38° 98° (E) 11:20:22 145.935 - 145.965
RS-15 22 Jan 11:15:42 11:27:39 52° 337° (NNW) 11:39:13 29.354- 29.394
Max Valier Satellite 22 Jan 11:16:50 11:19:45 22° 296° (WNW) 11:22:40 145.860
DUCHIFAT 1 22 Jan 11:18:18 11:22:31 82° 75° (ENE) 11:26:48 145.980
EO-79 22 Jan 11:21:15 11:25:29 74° 257° (WSW) 11:29:47 145.935-145.965
SO-50 22 Jan 11:25:11 11:29:04 25° 25° (NNE) 11:33:00 436.795
AO-85 22 Jan 11:26:10 11:29:20 23° 115° (ESE) 11:32:42 145.980
SPROUT 22 Jan 11:27:58 11:29:58 13° 87° (E) 11:31:59 437.525
EO-88 22 Jan 11:32:28 11:35:18 22° 296° (WNW) 11:38:07 145.990 - 145.960
AIST 2D 22 Jan 11:33:53 11:36:13 17° 269° (W) 11:38:33 435.315
BEESAT 3 22 Jan 11:37:34 11:41:02 27° 328° (NNW) 11:44:30 437.485
ESTCUBE 1 22 Jan 11:46:04 11:50:33 65° 102° (ESE) 11:55:00 437.505/2401.250
PCSat 22 Jan 11:46:04 11:51:04 36° 323° (NW) 11:56:06 145.827
AO-7 22 Jan 11:51:25 11:57:15 22° 36° (NE) 12:03:05 .
POLYITAN 1 22 Jan 11:57:09 12:01:02 34° 264° (W) 12:04:58 437.675
AO-91 22 Jan 12:01:12 12:04:18 32° 67° (ENE) 12:07:35 145.960
NANOSAT C BR1 22 Jan 12:11:47 12:15:26 28° 266° (W) 12:19:08 145.865
YUBILEINY 22 Jan 12:12:17 12:18:41 24° 285° (WNW) 12:25:04 435.215
BUGSAT 1 22 Jan 12:14:26 12:18:31 78° 75° (ENE) 12:22:43 437.445
QB50P2 22 Jan 12:28:26 12:31:15 17° 271° (W) 12:34:04 145.880/145.840
BEESAT 2 22 Jan 12:28:42 12:32:17 29° 328° (NNW) 12:35:52 435.950
Gurwin Techsat 1B 22 Jan 12:36:54 12:42:09 66° 70° (ENE) 12:47:26 435.225
Oscar 19 22 Jan 12:40:05 12:45:18 87° 72° (ENE) 12:50:33 437.125/150
LO-87 22 Jan 12:47:20 12:50:09 21° 296° (WNW) 12:52:57 145.935 - 145.965
DUCHIFAT 1 22 Jan 12:56:44 12:58:46 13° 273° (W) 13:00:49 145.980
SPROUT 22 Jan 13:02:08 13:06:28 85° 287° (WNW) 13:10:47 437.525
AO-85 22 Jan 13:05:17 13:09:20 60° 317° (NW) 13:13:46 145.980
SO-50 22 Jan 13:05:29 13:10:11 82° 49° (NE) 13:14:57 436.795
UKube-1 22 Jan 13:14:52 13:16:08 11° 86° (E) 13:17:23 .
VELOX 1 22 Jan 13:15:50 13:20:15 73° 104° (ESE) 13:24:39 145.980
BEESAT 3 22 Jan 13:17:45 13:19:46 13° 351° (N) 13:21:48 437.485
ESTCUBE 1 22 Jan 13:23:39 13:26:56 20° 301° (WNW) 13:30:12 437.505/2401.250
DX 1 22 Jan 13:28:00 13:31:30 23° 93° (E) 13:34:59 434.975-435.025
RS-15 22 Jan 13:31:35 13:43:08 46° 10° (N) 13:54:09 29.354- 29.394
PCSat 22 Jan 13:32:27 13:36:03 18° 348° (NNW) 13:39:39 145.827
AO-91 22 Jan 13:38:17 13:40:57 21° 268° (W) 13:43:44 145.960
AO-7 22 Jan 13:40:19 13:48:27 59° 60° (ENE) 13:56:38 .
50 SAT 22 Jan 13:47:12 13:49:55 26° 97° (E) 13:52:36 437.505
ITAMSAT 1 22 Jan 13:50:18 13:54:42 29° 60° (ENE) 13:59:08 435.822/435.867
BUGSAT 1 22 Jan 13:52:25 13:54:27 13° 273° (W) 13:56:30 437.445
M-CUBED/EXP-1 PRIME 22 Jan 14:08:12 14:10:25 14° 51° (NE) 14:12:33 437.505
BEESAT 2 22 Jan 14:09:00 14:11:11 14° 350° (N) 14:13:23 435.950
Gurwin Techsat 1B 22 Jan 14:18:25 14:22:34 23° 269° (W) 14:26:44 435.225
Oscar 19 22 Jan 14:22:04 14:25:19 17° 273° (W) 14:28:37 437.125/150
SPROUT 22 Jan 14:39:30 14:41:42 14° 305° (NW) 14:43:54 437.525
SO-50 22 Jan 14:46:47 14:50:08 20° 246° (WSW) 14:53:32 436.795
AO-85 22 Jan 14:47:22 14:50:39 21° 341° (NNW) 14:54:09 145.980
UKube-1 22 Jan 14:48:31 14:52:52 83° 107° (ESE) 14:57:10 .
VELOX 1 22 Jan 14:53:16 14:56:13 18° 303° (WNW) 14:59:10 145.980
BEESAT 3 22 Jan 14:56:27 14:58:49 15° 15° (NNE) 15:01:10 437.485
DOVE 4 22 Jan 14:57:26 15:00:49 24° 63° (ENE) 15:04:10 437.250
DX 1 22 Jan 15:03:44 15:07:55 47° 292° (WNW) 15:12:05 434.975-435.025
ITUPSAT 1 22 Jan 15:05:20 15:09:23 26° 93° (E) 15:13:23 437.325
PCSat 22 Jan 15:17:50 15:21:33 18° 14° (NNE) 15:25:15 145.827
50 SAT 22 Jan 15:19:02 15:21:32 22° 295° (WNW) 15:24:00 437.505
MOZHAYETS 4 22 Jan 15:21:51 15:26:28 60° 101° (E) 15:31:02
ITAMSAT 1 22 Jan 15:28:53 15:33:56 53° 259° (W) 15:39:02 435.822/435.867
CUBESAT XI-V 22 Jan 15:29:22 15:33:00 22° 91° (E) 15:36:36 437.345
AO-7 22 Jan 15:33:42 15:41:32 43° 262° (W) 15:49:27 .
CUTE-I 22 Jan 15:35:49 15:38:53 16° 50° (NE) 15:41:56 437.470
M-CUBED/EXP-1 PRIME 22 Jan 15:40:06 15:44:20 88° 69° (ENE) 15:48:16 437.505
XW-2B 22 Jan 15:41:58 15:43:03 11° 56° (NE) 15:44:07 145.730 - 145.750
BEESAT 22 Jan 15:43:37 15:48:21 55° 101° (E) 15:53:03 436.000
RS-15 22 Jan 15:45:42 15:57:43 74° 41° (NE) 16:09:03 29.354- 29.394
BEESAT 2 22 Jan 15:48:00 15:50:27 15° 14° (NNE) 15:52:54 435.950
HO-68 22 Jan 15:59:19 16:04:31 22° 46° (NE) 16:09:44 435.675
LilacSat-2 22 Jan 16:10:00 16:12:58 21° 63° (ENE) 16:15:55 437.200
XW-2C 22 Jan 16:10:21 16:13:11 20° 62° (ENE) 16:16:01 145.795 - 145.815
UKube-1 22 Jan 16:25:43 16:28:19 16° 304° (NW) 16:30:55 .
AO-85 22 Jan 16:29:42 16:32:41 17° 6° (N) 16:35:47 145.980
BEESAT 3 22 Jan 16:33:37 16:37:21 38° 38° (NE) 16:41:02 437.485
DOVE 4 22 Jan 16:34:20 16:38:21 42° 262° (W) 16:42:20 437.250
KAITUO 1B 22 Jan 16:40:08 16:43:21 27° 66° (ENE) 16:46:34 145.475/437.950
KKS-1 22 Jan 16:40:28 16:43:28 18° 90° (E) 16:46:29 437.445
ITUPSAT 1 22 Jan 16:42:47 16:47:27 50° 293° (WNW) 16:52:06 437.325
XW-2F 22 Jan 16:44:16 16:47:49 38° 69° (ENE) 16:51:21 145.980 - 146.000
NUDT-PHONESAT 22 Jan 16:48:02 16:51:21 31° 67° (ENE) 16:54:40 437.300
XW-2D 22 Jan 16:55:08 16:58:53 54° 71° (ENE) 17:02:38 145.860 - 145.880
MOZHAYETS 4 22 Jan 16:59:40 17:03:15 22° 301° (WNW) 17:06:48
PCSat 22 Jan 17:01:19 17:06:26 40° 39° (NE) 17:11:31 145.827
NO-84 22 Jan 17:02:02 17:04:36 25° 142° (SE) 17:07:05 435.350 FM
SEEDS 22 Jan 17:02:42 17:05:18 16° 58° (ENE) 17:07:55 437.485
CUBESAT XI-V 22 Jan 17:06:11 17:10:42 54° 290° (WNW) 17:15:10 437.345
XW-2B 22 Jan 17:12:43 17:16:33 80° 75° (ENE) 17:20:23 145.730 - 145.750
CUTE-I 22 Jan 17:12:47 17:18:04 72° 71° (ENE) 17:23:23 437.470
CUTE 1.7 + AOD 2 22 Jan 17:17:00 17:20:46 31° 65° (ENE) 17:24:32 437.475
M-CUBED/EXP-1 PRIME 22 Jan 17:17:25 17:19:09 12° 265° (W) 17:20:51 437.505
BEESAT 22 Jan 17:21:54 17:25:50 26° 300° (WNW) 17:29:45 436.000
BEESAT 2 22 Jan 17:25:25 17:29:13 38° 37° (NE) 17:32:58 435.950
LilacSat-2 22 Jan 17:43:17 17:47:00 44° 261° (W) 17:50:42 437.200
XW-2C 22 Jan 17:43:22 17:47:05 47° 261° (W) 17:50:48 145.795 - 145.815
HO-68 22 Jan 17:44:06 17:51:14 75° 68° (ENE) 17:58:24 435.675
CUBEBUG 2 22 Jan 17:45:15 17:49:25 40° 67° (ENE) 17:53:45 437.445
UWE-3 22 Jan 17:47:39 17:51:27 27° 62° (ENE) 17:55:21 435.000/436.395/437.385
RS-15 22 Jan 17:58:45 18:09:33 45° 248° (WSW) 18:19:51 29.354- 29.394
ZACube-1 22 Jan 18:07:49 18:11:28 25° 61° (ENE) 18:15:10 437.345
AO-85 22 Jan 18:10:19 18:14:28 30° 30° (NNE) 18:18:54 145.980
BEESAT 3 22 Jan 18:11:15 18:14:51 35° 238° (WSW) 18:18:24 437.485
AAUSAT CUBESAT 2 22 Jan 18:13:21 18:17:01 32° 66° (ENE) 18:20:42 437.432
AO-73 22 Jan 18:13:32 18:17:11 25° 61° (ENE) 18:20:53 145.935
KAITUO 1B 22 Jan 18:13:53 18:17:15 30° 264° (W) 18:20:38 145.475/437.950
KKS-1 22 Jan 18:16:03 18:20:29 66° 289° (WNW) 18:24:54 437.445
XW-2A 22 Jan 18:16:49 18:19:40 25° 66° (ENE) 18:22:32 145.665 - 145.685
XW-2F 22 Jan 18:18:59 18:22:02 22° 267° (W) 18:25:05 145.980 - 146.000
NUDT-PHONESAT 22 Jan 18:21:59 18:25:11 27° 265° (W) 18:28:25 437.300
ITUPSAT 1 22 Jan 18:23:25 18:24:14 10° 313° (NW) 18:25:03 437.325
STARS 22 Jan 18:27:09 18:31:35 72° 104° (ESE) 18:36:00 437.465
XW-2D 22 Jan 18:30:54 18:33:22 16° 270° (W) 18:35:50 145.860 - 145.880
SEEDS 22 Jan 18:36:16 18:40:29 75° 258° (WSW) 18:44:42 437.485
NO-84 22 Jan 18:38:37 18:41:34 69° 341° (NNW) 18:44:24 435.350 FM
PCSat 22 Jan 18:44:45 18:50:02 52° 241° (WSW) 18:55:16 145.827
Oscar 11 22 Jan 18:44:46 18:48:32 30° 64° (ENE) 18:52:20 .
CUBESAT XI-V 22 Jan 18:46:28 18:47:05 10° 311° (NW) 18:47:41 437.345
XW-2B 22 Jan 18:49:57 18:51:15 11° 273° (W) 18:52:32 145.730 - 145.750
CUTE 1.7 + AOD 2 22 Jan 18:52:40 18:56:33 34° 264° (W) 19:00:28 437.475
CUTE-I 22 Jan 18:54:43 18:58:40 21° 270° (W) 19:02:38 437.470
BEESAT 2 22 Jan 19:03:11 19:06:56 38° 238° (WSW) 19:10:38 435.950
STRAND 1 22 Jan 19:05:31 19:10:05 31° 94° (E) 19:14:39 437.568
CUBEBUG 2 22 Jan 19:22:16 19:26:09 29° 267° (W) 19:30:11 437.445
UWE-3 22 Jan 19:23:24 19:27:42 45° 262° (W) 19:32:09 435.000/436.395/437.385
HO-68 22 Jan 19:33:42 19:39:39 28° 269° (W) 19:45:38 435.675
ZACube-1 22 Jan 19:43:03 19:47:27 52° 261° (W) 19:51:57 437.345
AO-73 22 Jan 19:48:45 19:53:08 51° 261° (W) 19:57:37 145.935
AAUSAT CUBESAT 2 22 Jan 19:48:45 19:52:27 31° 265° (W) 19:56:10 437.432
XW-2A 22 Jan 19:49:16 19:52:17 28° 264° (W) 19:55:18 145.665 - 145.685
AO-85 22 Jan 19:50:33 19:55:23 81° 229° (SW) 20:00:35 145.980
KKS-1 22 Jan 19:54:34 19:56:13 12° 308° (NW) 19:57:52 437.445
STARS 22 Jan 20:04:25 20:07:26 18° 303° (WNW) 20:10:28 437.465
DELFI C3 22 Jan 20:08:41 20:12:19 38° 68° (ENE) 20:15:58 145.870
NO-84 22 Jan 20:16:12 20:18:58 41° 2° (N) 20:21:40 435.350 FM
FO-29 22 Jan 20:16:35 20:21:43 53° 100° (E) 20:26:49 435.910
Oscar 11 22 Jan 20:20:31 20:24:35 38° 263° (W) 20:28:40 .
Max Valier Satellite 22 Jan 20:26:06 20:29:35 38° 69° (ENE) 20:33:06 145.860
UNISAT 6 22 Jan 20:26:44 20:27:10 10° 83° (E) 20:27:34 437.425
nSIGHT-1 22 Jan 20:27:26 20:29:56 22° 147° (SSE) 20:32:27 .
EO-88 22 Jan 20:40:42 20:44:06 37° 69° (ENE) 20:47:31 145.990 - 145.960
STRAND 1 22 Jan 20:44:32 20:49:27 46° 294° (WNW) 20:54:21 437.568
ISS 22 Jan 20:47:40 20:50:19 23° 147° (SSE) 20:53:00 437.550
ESTCUBE 1 22 Jan 21:15:40 21:18:45 18° 57° (ENE) 21:21:49 437.505/2401.250
YUBILEINY 22 Jan 21:27:57 21:34:29 24° 76° (ENE) 21:41:01 435.215
AO-85 22 Jan 21:32:09 21:35:14 17° 248° (WSW) 21:38:26 145.980
PRISM 22 Jan 21:41:05 21:41:41 10° 86° (E) 21:42:17 437.425
DELFI C3 22 Jan 21:44:00 21:47:11 23° 267° (W) 21:50:22 145.870
TIGRISAT 22 Jan 21:44:17 21:48:51 45° 98° (E) 21:53:21 435.000
NO-84 22 Jan 21:53:27 21:56:17 86° 15° (NNE) 21:59:08 435.350 FM
LO-87 22 Jan 21:54:14 21:57:31 36° 68° (ENE) 22:00:51 145.935 - 145.965
UNISAT 6 22 Jan 22:00:02 22:04:45 68° 102° (ESE) 22:09:26 437.425
Max Valier Satellite 22 Jan 22:00:37 22:03:32 21° 267° (W) 22:06:29 145.860
FO-29 22 Jan 22:02:15 22:06:37 27° 301° (WNW) 22:10:55 435.910
nSIGHT-1 22 Jan 22:02:36 22:05:45 68° 165° (SSE) 22:08:54 .
EO-88 22 Jan 22:15:01 22:17:52 21° 267° (W) 22:20:44 145.990 - 145.960
ISS 22 Jan 22:23:12 22:26:28 70° 166° (SSE) 22:29:44 437.550
SPROUT 22 Jan 22:25:47 22:28:58 21° 60° (ENE) 22:32:09 437.525
STRAND 1 22 Jan 22:26:45 22:27:28 10° 315° (NW) 22:28:11 437.568
VELOX 1 22 Jan 22:43:16 22:46:23 19° 58° (ENE) 22:49:32 145.980
ESTCUBE 1 22 Jan 22:50:32 22:55:03 74° 257° (WSW) 22:59:35 437.505/2401.250
AIST 2D 22 Jan 22:51:54 22:54:50 25° 94° (E) 22:57:46 435.315
O/OREOS (USA 219) 22 Jan 23:01:16 23:01:44 10° 96° (E) 23:02:12 437.305
EO-79 22 Jan 23:01:47 23:03:47 13° 87° (E) 23:05:48 145.935-145.965
PRISM 22 Jan 23:13:31 23:17:38 83° 105° (ESE) 23:21:43 437.425
YUBILEINY 22 Jan 23:21:16 23:30:07 88° 99° (E) 23:38:58 435.215
TIGRISAT 22 Jan 23:21:18 23:25:21 29° 297° (WNW) 23:29:22 435.000
LO-87 22 Jan 23:28:13 23:31:02 21° 267° (W) 23:33:52 145.935 - 145.965
NO-84 22 Jan 23:31:05 23:33:07 18° 221° (SW) 23:35:10 435.350 FM
POLYITAN 1 22 Jan 23:36:04 23:39:45 27° 94° (E) 23:43:23 437.675
UNISAT 6 22 Jan 23:37:31 23:41:00 21° 301° (WNW) 23:44:30 437.425
nSIGHT-1 22 Jan 23:38:43 23:41:53 87° 187° (S) 23:45:05 .
NANOSAT C BR1 22 Jan 23:49:45 23:53:35 31° 95° (E) 23:57:25 145.865
ISS 22 Jan 23:59:39 00:02:56 86° 188° (S) 00:06:13 437.550
SPROUT 23 Jan 00:00:19 00:04:29 57° 259° (W) 00:08:44 437.525
QB50P2 23 Jan 00:05:38 00:09:53 55° 100° (E) 00:14:06 145.880/145.840
UKube-1 23 Jan 00:13:19 00:16:31 21° 59° (ENE) 00:19:43 .
50 SAT 23 Jan 00:16:45 00:19:06 20° 65° (ENE) 00:21:30 437.505
VELOX 1 23 Jan 00:18:03 00:22:25 65° 257° (WSW) 00:26:47 145.980
AIST 2D 23 Jan 00:24:59 00:28:00 28° 293° (WNW) 00:31:00 435.315
DX 1 23 Jan 00:28:18 00:32:21 40° 66° (ENE) 00:36:24 434.975-435.025
ESTCUBE 1 23 Jan 00:31:44 00:32:40 11° 276° (W) 00:33:35 437.505/2401.250
DUCHIFAT 1 23 Jan 00:32:05 00:36:22 70° 102° (ESE) 00:40:37 145.980
O/OREOS (USA 219) 23 Jan 00:35:47 00:40:17 72° 115° (ESE) 00:44:46 437.305
EO-79 23 Jan 00:35:50 00:40:09 85° 283° (WNW) 00:44:26 145.935-145.965
ITUPSAT 1 23 Jan 00:43:26 00:44:48 11° 48° (NE) 00:46:12 437.325
Oscar 19 23 Jan 00:46:48 00:50:37 20° 90° (E) 00:54:23 437.125/150
Gurwin Techsat 1B 23 Jan 00:48:29 00:51:53 17° 87° (E) 00:55:16 435.225
PRISM 23 Jan 00:50:07 00:52:20 14° 304° (NW) 00:54:34 437.425
MOZHAYETS 4 23 Jan 00:53:34 00:56:43 18° 57° (ENE) 00:59:52
POLYITAN 1 23 Jan 01:11:36 01:15:39 40° 293° (WNW) 01:19:40 437.675
nSIGHT-1 23 Jan 01:14:55 01:17:55 38° 205° (SSW) 01:20:54 .
BEESAT 23 Jan 01:19:10 01:22:39 21° 57° (ENE) 01:26:08 436.000
AO-91 23 Jan 01:19:50 01:24:03 42° 99° (E) 01:28:41 145.960
YUBILEINY 23 Jan 01:20:52 01:28:11 28° 304° (WNW) 01:35:31 435.215
NANOSAT C BR1 23 Jan 01:25:26 01:29:19 34° 294° (WNW) 01:33:09 145.865
BUGSAT 1 23 Jan 01:25:38 01:29:53 63° 102° (ESE) 01:34:06 437.445
ISS 23 Jan 01:36:10 01:39:15 38° 206° (SSW) 01:42:20 437.550
AO-7 23 Jan 01:39:23 01:41:12 11° 78° (ENE) 01:43:01 .
QB50P2 23 Jan 01:42:05 01:45:20 21° 300° (WNW) 01:48:35 145.880/145.840
UKube-1 23 Jan 01:47:56 01:52:11 58° 258° (WSW) 01:56:26 .
50 SAT 23 Jan 01:47:58 01:50:41 28° 263° (W) 01:53:26 437.505
DX 1 23 Jan 02:04:57 02:08:38 27° 265° (W) 02:12:22 434.975-435.025
DUCHIFAT 1 23 Jan 02:08:42 02:11:33 18° 302° (WNW) 02:14:24 145.980
EO-79 23 Jan 02:13:04 02:15:15 14° 305° (NW) 02:17:24 145.935-145.965
O/OREOS (USA 219) 23 Jan 02:16:40 02:20:10 22° 316° (NW) 02:23:41 437.305
ITUPSAT 1 23 Jan 02:16:58 02:21:38 55° 68° (ENE) 02:26:21 437.325
Oscar 19 23 Jan 02:25:17 02:30:28 71° 290° (WNW) 02:35:36 437.125/150
Gurwin Techsat 1B 23 Jan 02:27:12 02:32:33 87° 291° (WNW) 02:37:53 435.225
MOZHAYETS 4 23 Jan 02:28:41 02:33:20 78° 258° (WSW) 02:38:01
CUBESAT XI-V 23 Jan 02:37:25 02:41:48 40° 66° (ENE) 02:46:10 437.345
